Location: Leuk
(46.3174°N, 7.6341°E)
Time: 18:23:22
(UTC+00:00)

Cosmos 407 Rocket - Pass Details

Date: 09 March 2021
Orbit: 744 x 786 km, 74.0° (Epoch: 15 April)

Event Time Altitude Azimuth Distance (km) Brightness Sun altitude
Exits shadow 04:06:20 - 190° (S) 2,609 6.0 -19.2°
Reaches altitude 10° 04:07:12 10° 189° (S) 2,276 5.7 -19.1°
Maximum altitude 04:12:18 66° 108° (ESE) 821 3.8 -18.2°
Drops below altitude 10° 04:17:23 10° 27° (NNE) 2,272 6.5 -17.4°
Sets 04:19:46 0° 25° (NNE) 3,198 7.3 -17.0°
